Date/Time (AEST),Hs (m),Hmax (m),Tz (s),Tp (s),Peak Direction (degrees),SST (degrees C)
2019-01-01T00:00,0.941,1.860,3.784,4.665,101.70,25.550
2019-01-01T00:30,0.954,1.780,3.819,3.966,96.70,25.500
2019-01-01T01:00,0.944,1.630,3.745,4.079,104.70,25.500
2019-01-01T01:30,0.901,1.530,3.765,4.103,98.70,25.500
2019-01-01T02:00,0.927,1.480,3.636,3.892,98.70,25.550
2019-01-01T02:30,1.001,1.770,3.689,4.332,107.70,25.600
2019-01-01T03:00,0.991,1.940,3.735,4.610,103.70,25.600
2019-01-01T03:30,1.025,1.850,3.607,4.475,104.70,25.650
2019-01-01T04:00,1.020,1.820,3.528,4.490,101.70,25.700
2019-01-01T04:30,1.035,1.670,3.695,4.597,104.70,25.700
2019-01-01T05:00,1.108,1.860,3.807,4.516,105.70,25.700
2019-01-01T05:30,1.092,1.810,3.714,4.539,104.70,25.700
2019-01-01T06:00,1.057,2.000,3.718,4.702,108.70,25.700
2019-01-01T06:30,1.033,2.200,3.715,4.333,104.70,25.700
2019-01-01T07:00,1.043,1.870,3.867,4.358,101.70,25.650
2019-01-01T07:30,1.076,1.780,3.796,4.601,101.70,25.650
2019-01-01T08:00,1.092,1.790,3.817,4.226,101.70,25.650
2019-01-01T08:30,1.116,1.750,3.916,4.707,101.70,25.700
2019-01-01T09:00,1.032,1.590,3.810,4.300,107.70,25.700
2019-01-01T09:30,1.049,1.750,3.921,4.543,98.70,25.750
2019-01-01T10:00,1.001,1.890,3.792,4.122,100.70,25.750
2019-01-01T10:30,0.999,1.640,3.775,4.056,98.70,25.750
2019-01-01T11:00,0.993,1.520,3.960,4.392,103.70,25.800
2019-01-01T11:30,0.943,1.780,3.896,3.804,96.70,25.800
2019-01-01T12:00,0.894,1.800,3.775,4.293,105.70,25.850
2019-01-01T12:30,0.910,1.510,3.750,4.381,100.70,25.800
2019-01-01T13:00,0.902,1.500,3.644,4.028,98.70,25.800
2019-01-01T13:30,0.945,1.610,3.920,3.971,101.70,25.800
2019-01-01T14:00,0.890,1.690,3.778,3.923,98.70,25.750
2019-01-01T14:30,0.914,1.620,3.810,4.206,101.70,25.750
2019-01-01T15:00,0.870,1.570,3.683,3.667,103.70,25.750
2019-01-01T15:30,0.890,1.540,3.680,4.213,93.70,25.800
2019-01-01T16:00,0.925,1.470,3.606,3.818,110.70,25.800
2019-01-01T16:30,0.932,1.640,3.531,4.053,112.70,25.850
2019-01-01T17:00,0.944,1.630,3.589,4.121,121.70,25.850
2019-01-01T17:30,0.969,1.600,3.632,3.961,119.70,25.850
2019-01-01T18:00,1.012,1.670,3.613,3.956,103.70,25.900
2019-01-01T18:30,1.007,2.050,3.706,4.136,107.70,25.850
2019-01-01T19:00,0.992,1.650,3.724,4.028,100.70,25.900
2019-01-01T19:30,0.971,1.540,3.659,4.117,101.70,25.850
2019-01-01T20:00,0.958,1.720,3.748,3.967,97.70,25.850
2019-01-01T20:30,0.957,1.950,3.685,4.223,100.70,25.800
2019-01-01T21:00,0.963,1.660,3.625,4.362,94.70,25.800
2019-01-01T21:30,0.935,1.720,3.540,4.108,90.70,25.800
2019-01-01T22:00,0.931,1.490,3.636,4.262,90.70,25.800
2019-01-01T22:30,0.918,1.620,3.593,4.367,94.70,25.750
2019-01-01T23:00,0.906,1.690,3.554,4.287,100.70,25.750
2019-01-01T23:30,0.917,1.710,3.515,4.046,94.70,25.750
2019-01-02T00:00,0.940,1.580,3.625,4.384,100.70,25.700
2019-01-02T00:30,0.930,1.510,3.650,4.017,97.70,25.700
2019-01-02T01:00,0.957,1.740,3.658,4.470,96.70,25.700
2019-01-02T01:30,0.964,1.650,3.645,4.502,98.70,25.750
2019-01-02T02:00,0.966,2.060,3.660,3.753,90.70,25.750
2019-01-02T02:30,0.869,1.570,3.556,4.381,98.70,25.700
2019-01-02T03:00,0.912,1.490,3.572,3.812,101.70,25.750
2019-01-02T03:30,0.910,1.540,3.603,4.396,96.70,25.750
2019-01-02T04:00,0.882,1.690,3.564,4.200,100.70,25.750
2019-01-02T04:30,0.861,1.560,3.640,4.143,101.70,25.750
2019-01-02T05:00,0.916,1.450,3.580,4.403,100.70,25.750
2019-01-02T05:30,0.938,1.910,3.619,4.399,94.70,25.700
2019-01-02T06:00,0.994,1.570,3.609,4.591,103.70,25.700
2019-01-02T06:30,0.999,1.830,3.645,4.698,104.70,25.700
2019-01-02T07:00,1.102,2.060,3.699,4.313,103.70,25.750
2019-01-02T07:30,1.046,1.610,3.795,4.690,101.70,25.700
2019-01-02T08:00,1.022,1.970,3.781,4.504,107.70,25.700
2019-01-02T08:30,1.109,1.810,3.865,4.932,100.70,25.750
2019-01-02T09:00,1.111,1.740,3.990,4.461,100.70,25.750
2019-01-02T09:30,1.018,1.730,3.792,4.341,107.70,25.750
2019-01-02T10:00,1.118,1.840,3.831,4.590,96.70,25.750
2019-01-02T10:30,1.005,2.070,3.763,4.580,100.70,25.800
2019-01-02T11:00,0.999,1.620,3.799,4.393,97.70,25.800
2019-01-02T11:30,1.048,1.910,3.793,4.701,101.70,25.800
2019-01-02T12:00,1.039,1.670,3.744,4.122,101.70,25.850
2019-01-02T12:30,0.941,1.470,3.604,4.691,98.70,25.900
2019-01-02T13:00,0.926,1.520,3.602,4.482,100.70,25.850
2019-01-02T13:30,0.956,1.840,3.734,4.694,107.70,25.900
2019-01-02T14:00,0.974,1.820,3.758,3.947,101.70,25.950
2019-01-02T14:30,0.998,1.860,3.637,4.132,103.70,25.950
2019-01-02T15:00,0.968,1.750,3.632,4.223,105.70,26.000
2019-01-02T15:30,0.981,1.700,3.648,4.188,107.70,26.000
2019-01-02T16:00,1.019,1.600,3.709,4.034,103.70,26.000
2019-01-02T16:30,1.076,1.880,3.747,4.378,114.70,26.000
2019-01-02T17:00,1.058,2.010,3.732,4.128,117.70,25.950
2019-01-02T17:30,1.109,1.990,3.653,4.384,105.70,25.950
2019-01-02T18:00,1.072,2.040,3.790,4.283,112.70,25.950
2019-01-02T18:30,1.060,1.740,3.595,4.217,107.70,25.950
2019-01-02T19:00,0.970,1.660,3.630,4.112,112.70,25.950
2019-01-02T19:30,0.890,1.540,3.654,4.213,105.70,25.950
2019-01-02T20:00,0.815,1.640,3.541,4.125,98.70,25.900
2019-01-02T20:30,0.776,1.280,3.597,3.887,103.70,25.900
2019-01-02T21:00,0.765,1.300,3.581,3.762,104.70,25.900
2019-01-02T21:30,0.775,1.390,3.658,4.393,97.70,25.900
2019-01-02T22:00,0.739,1.440,3.556,4.214,97.70,25.900
2019-01-02T22:30,0.720,1.200,3.589,4.490,100.70,25.850
2019-01-02T23:00,0.674,1.100,3.645,4.205,101.70,25.850
2019-01-02T23:30,0.661,1.190,3.710,3.873,91.70,25.850
2019-01-03T00:00,0.599,1.090,3.709,4.040,107.70,25.850
2019-01-03T00:30,0.536,0.910,3.803,4.700,96.70,25.600
2019-01-03T01:00,0.484,0.780,3.935,7.830,97.70,25.300
2019-01-03T01:30,0.525,0.850,4.366,8.541,72.70,25.200
2019-01-03T02:00,0.491,0.780,4.165,9.277,52.70,25.250
2019-01-03T02:30,0.474,0.770,4.095,7.551,52.70,25.300
2019-01-03T03:00,0.467,0.820,4.106,7.821,59.70,25.250
2019-01-03T03:30,0.454,0.830,3.933,7.912,58.70,25.450
2019-01-03T04:00,0.425,0.690,3.972,8.173,38.70,25.550
2019-01-03T04:30,0.432,0.660,4.559,9.730,46.70,25.450
2019-01-03T05:00,0.437,0.840,4.666,8.174,35.70,25.500
2019-01-03T05:30,0.419,0.650,4.648,8.524,49.70,25.500
2019-01-03T06:00,0.434,0.790,4.572,9.175,58.70,25.500
2019-01-03T06:30,0.395,0.660,4.733,8.522,53.70,25.400
2019-01-03T07:00,0.418,0.700,4.886,8.469,52.70,25.400
2019-01-03T07:30,0.419,0.770,5.043,8.859,44.70,25.450
2019-01-03T08:00,0.379,0.690,4.389,8.551,53.70,25.550
2019-01-03T08:30,0.433,0.720,5.409,9.260,51.70,25.600
2019-01-03T09:00,0.430,0.690,5.314,9.312,49.70,25.650
2019-01-03T09:30,0.435,0.640,5.717,8.930,46.70,25.800
2019-01-03T10:00,0.403,0.730,5.328,8.925,53.70,25.950
2019-01-03T10:30,0.427,0.770,5.330,9.085,52.70,25.900
2019-01-03T11:00,0.449,0.730,5.562,8.972,51.70,26.150
2019-01-03T11:30,0.405,0.720,5.080,8.494,52.70,26.300
2019-01-03T12:00,0.409,0.690,4.137,8.891,53.70,26.400
2019-01-03T12:30,0.448,0.810,3.772,9.726,45.70,26.400
2019-01-03T13:00,0.495,0.820,3.405,8.997,53.70,26.350
2019-01-03T13:30,0.557,1.060,3.283,3.473,59.70,26.300
2019-01-03T14:00,0.611,1.070,3.293,3.550,103.70,26.400
2019-01-03T14:30,0.652,1.100,3.242,3.676,108.70,26.350
2019-01-03T15:00,0.706,1.280,3.418,3.750,104.70,26.450
2019-01-03T15:30,0.701,1.330,3.307,3.807,105.70,26.300
2019-01-03T16:00,0.739,1.250,3.536,3.807,104.70,26.150
2019-01-03T16:30,0.762,1.270,3.553,3.883,108.70,26.050
2019-01-03T17:00,0.701,1.310,3.419,4.217,107.70,26.000
2019-01-03T17:30,0.739,1.490,3.513,3.733,104.70,26.000
2019-01-03T18:00,0.694,1.160,3.424,3.544,105.70,26.000
2019-01-03T18:30,0.717,1.130,3.417,3.809,104.70,25.950
2019-01-03T19:00,0.704,1.150,3.443,3.539,104.70,25.950
2019-01-03T19:30,0.688,1.130,3.438,3.601,110.70,25.950
2019-01-03T20:00,0.631,1.100,3.446,3.659,105.70,25.950
2019-01-03T20:30,0.577,0.910,3.354,9.372,46.70,25.950
2019-01-03T21:00,0.522,0.880,3.426,3.405,107.70,25.900
2019-01-03T21:30,0.477,0.800,3.376,3.149,103.70,25.900
2019-01-03T22:00,0.470,0.730,3.569,8.966,48.70,25.900
2019-01-03T22:30,0.433,0.740,3.779,9.474,101.70,25.850
2019-01-03T23:00,0.376,0.870,3.525,9.216,55.70,25.900
2019-01-03T23:30,0.359,0.630,3.631,9.033,41.70,25.950
2019-01-04T00:00,0.360,0.630,3.967,8.891,62.70,25.950
2019-01-04T00:30,0.359,0.580,4.009,8.993,51.70,26.000
2019-01-04T01:00,0.328,0.550,4.041,6.192,53.70,25.950
2019-01-04T01:30,0.308,0.520,3.997,9.324,73.70,25.950
2019-01-04T02:00,0.311,0.490,4.135,8.547,51.70,25.950
2019-01-04T02:30,0.295,0.550,4.344,8.514,65.70,25.900
2019-01-04T03:00,0.294,0.480,4.446,8.485,58.70,25.900
2019-01-04T03:30,0.299,0.510,4.454,8.133,55.70,25.900
2019-01-04T04:00,0.287,0.450,4.068,8.232,52.70,25.900
2019-01-04T04:30,0.300,0.470,4.071,8.569,46.70,25.850
2019-01-04T05:00,0.273,0.490,4.186,8.140,58.70,25.850
2019-01-04T05:30,0.281,0.480,4.352,7.563,52.70,25.800
2019-01-04T06:00,0.278,0.420,4.319,8.628,52.70,25.800
2019-01-04T06:30,0.268,0.430,4.260,7.811,48.70,25.800
2019-01-04T07:00,0.259,0.390,4.078,8.559,58.70,25.550
2019-01-04T07:30,0.272,0.420,4.444,9.244,60.70,25.650
2019-01-04T08:00,0.266,0.420,4.399,8.908,51.70,25.700
2019-01-04T08:30,0.269,0.580,4.656,8.869,56.70,25.750
2019-01-04T09:00,0.281,0.540,4.781,9.645,53.70,25.950
2019-01-04T09:30,0.266,0.440,4.754,8.544,67.70,26.100
2019-01-04T10:00,0.286,0.470,5.144,7.271,66.70,26.300
2019-01-04T10:30,0.271,0.430,5.303,7.564,49.70,26.250
2019-01-04T11:00,0.295,0.540,5.695,9.231,49.70,26.400
2019-01-04T11:30,0.267,0.420,5.304,7.771,76.70,26.450
2019-01-04T12:00,0.260,0.380,5.433,8.407,77.70,26.700
2019-01-04T12:30,0.294,0.490,5.236,7.891,62.70,26.650
2019-01-04T13:00,0.313,0.570,3.424,7.877,76.70,26.500
2019-01-04T13:30,0.399,0.670,3.142,2.687,66.70,26.450
2019-01-04T14:00,0.471,0.810,3.126,3.008,103.70,26.450
2019-01-04T14:30,0.474,0.820,3.042,3.058,98.70,26.450
2019-01-04T15:00,0.511,0.880,3.124,3.146,105.70,26.450
2019-01-04T15:30,0.531,0.940,3.101,3.154,105.70,26.450
2019-01-04T16:00,0.552,0.910,3.172,3.420,107.70,26.400
2019-01-04T16:30,0.549,0.930,3.261,3.414,105.70,26.300
2019-01-04T17:00,0.608,1.210,3.210,3.473,105.70,26.250
2019-01-04T17:30,0.601,1.040,3.345,3.588,108.70,26.300
2019-01-04T18:00,0.605,1.160,3.441,3.360,104.70,26.300
2019-01-04T18:30,0.580,1.070,3.401,3.616,101.70,26.200
2019-01-04T19:00,0.598,1.020,3.352,3.418,108.70,26.300
2019-01-04T19:30,0.568,0.880,3.393,3.737,46.70,26.350
2019-01-04T20:00,0.579,1.030,3.483,3.680,104.70,26.300
2019-01-04T20:30,0.542,0.940,3.680,3.739,104.70,26.250
2019-01-04T21:00,0.549,0.990,3.743,11.377,52.70,26.250
2019-01-04T21:30,0.503,0.780,3.491,11.387,48.70,26.250
2019-01-04T22:00,0.495,0.940,3.590,12.190,101.70,26.200
2019-01-04T22:30,0.509,0.860,3.674,11.412,42.70,26.200
2019-01-04T23:00,0.533,0.990,3.696,12.108,51.70,26.200
2019-01-04T23:30,0.536,1.000,3.766,11.466,41.70,26.150
2019-01-05T00:00,0.534,0.850,3.749,11.026,44.70,26.150
2019-01-05T00:30,0.529,0.970,3.859,11.981,45.70,26.100
2019-01-05T01:00,0.488,0.800,3.584,3.381,39.70,26.050
2019-01-05T01:30,0.457,0.770,3.585,12.196,48.70,26.100
2019-01-05T02:00,0.455,0.880,3.752,12.860,42.70,26.050
2019-01-05T02:30,0.448,0.760,4.060,10.922,45.70,26.050
2019-01-05T03:00,0.455,0.800,3.575,12.901,48.70,26.000
2019-01-05T03:30,0.417,0.750,3.625,12.405,51.70,26.000
2019-01-05T04:00,0.428,0.720,3.780,12.186,44.70,26.000
2019-01-05T04:30,0.448,0.790,3.809,12.905,41.70,26.000
2019-01-05T05:00,0.420,0.890,3.795,11.482,45.70,25.950
2019-01-05T05:30,0.451,0.710,3.624,13.071,45.70,26.000
2019-01-05T06:00,0.487,0.840,3.933,13.759,44.70,25.950
2019-01-05T06:30,0.450,0.810,3.930,13.485,46.70,25.950
2019-01-05T07:00,0.446,0.820,4.279,13.104,51.70,25.950
2019-01-05T07:30,0.426,0.720,4.156,12.744,42.70,26.000
2019-01-05T08:00,0.407,0.840,4.046,12.479,39.70,26.050
2019-01-05T08:30,0.418,0.720,4.531,12.949,41.70,26.100
2019-01-05T09:00,0.408,0.860,4.807,12.737,32.70,26.100
2019-01-05T09:30,0.417,0.670,5.034,13.254,32.70,26.200
2019-01-05T10:00,0.397,0.650,4.939,13.365,36.70,26.350
2019-01-05T10:30,0.384,0.720,4.616,13.042,48.70,26.450
2019-01-05T11:00,0.400,0.730,3.986,13.415,38.70,26.550
2019-01-05T11:30,0.431,0.800,3.502,10.399,28.70,26.550
2019-01-05T12:00,0.459,0.760,3.464,2.914,32.70,26.400
2019-01-05T12:30,0.463,0.850,3.242,12.890,42.70,26.300
2019-01-05T13:00,0.497,1.040,3.368,13.637,28.70,26.300
2019-01-05T13:30,0.536,0.840,3.340,13.045,29.70,26.500
2019-01-05T14:00,0.609,1.020,3.286,12.866,31.70,26.400
2019-01-05T14:30,0.609,1.010,3.322,12.963,38.70,26.400
2019-01-05T15:00,0.625,0.980,3.386,12.915,20.70,26.350
2019-01-05T15:30,0.619,1.090,3.418,12.820,35.70,26.350
2019-01-05T16:00,0.613,1.010,3.339,3.419,32.70,26.450
2019-01-05T16:30,0.652,0.990,3.340,3.423,107.70,26.400
2019-01-05T17:00,0.623,1.350,3.333,3.487,29.70,26.400
2019-01-05T17:30,0.646,1.120,3.318,3.522,103.70,26.350
2019-01-05T18:00,0.618,1.180,3.482,3.475,105.70,26.350
2019-01-05T18:30,0.598,1.000,3.388,11.413,100.70,26.350
2019-01-05T19:00,0.635,0.970,3.465,12.251,41.70,26.300
2019-01-05T19:30,0.598,1.020,3.393,12.461,31.70,26.300
2019-01-05T20:00,0.569,1.130,3.345,3.379,41.70,26.300
2019-01-05T20:30,0.542,1.050,3.510,12.605,98.70,26.300
2019-01-05T21:00,0.527,1.140,3.511,12.800,38.70,26.250
2019-01-05T21:30,0.493,0.820,3.527,12.277,36.70,26.250
2019-01-05T22:00,0.418,0.800,3.498,12.167,39.70,26.250
2019-01-05T22:30,0.389,0.800,3.599,11.091,41.70,26.250
2019-01-05T23:00,0.382,0.700,3.735,12.957,35.70,26.250
2019-01-05T23:30,0.359,0.580,3.626,11.390,36.70,26.250
2019-01-06T00:00,0.357,0.670,3.823,12.020,34.70,26.250
2019-01-06T00:30,0.353,0.610,4.009,11.494,38.70,26.300
2019-01-06T01:00,0.345,0.730,4.115,12.278,41.70,26.250
2019-01-06T01:30,0.331,0.640,4.010,12.977,38.70,26.250
2019-01-06T02:00,0.347,0.590,4.146,13.102,36.70,26.250
2019-01-06T02:30,0.360,0.610,4.525,12.677,41.70,26.250
2019-01-06T03:00,0.338,0.640,4.312,13.548,39.70,26.150
2019-01-06T03:30,0.354,0.580,4.518,12.902,41.70,26.100
2019-01-06T04:00,0.347,0.640,4.791,12.337,38.70,26.150
2019-01-06T04:30,0.333,0.540,5.158,12.187,35.70,26.100
2019-01-06T05:00,0.341,0.580,5.153,12.806,41.70,26.100
2019-01-06T05:30,0.323,0.570,5.089,12.299,39.70,26.150
2019-01-06T06:00,0.344,0.740,5.138,12.970,42.70,26.150
2019-01-06T06:30,0.336,0.710,4.653,12.849,42.70,26.200
2019-01-06T07:00,0.315,0.540,4.829,13.471,44.70,26.200
2019-01-06T07:30,0.334,0.530,5.447,11.796,41.70,26.250
2019-01-06T08:00,0.333,0.570,5.893,12.837,48.70,26.250
2019-01-06T08:30,0.362,0.610,6.205,12.916,39.70,26.400
2019-01-06T09:00,0.338,0.610,5.850,12.129,46.70,26.600
2019-01-06T09:30,0.386,0.710,6.270,12.137,45.70,26.900
2019-01-06T10:00,0.346,0.630,6.348,12.861,38.70,26.950
2019-01-06T10:30,0.326,0.550,6.233,11.957,31.70,27.000
2019-01-06T11:00,0.350,0.580,6.723,12.227,41.70,27.150
2019-01-06T11:30,0.348,0.660,6.690,12.561,34.70,27.200
2019-01-06T12:00,0.339,0.550,6.819,12.647,31.70,27.450
2019-01-06T12:30,0.364,0.650,6.531,12.121,25.70,27.350
2019-01-06T13:00,0.400,0.750,4.418,11.987,31.70,27.250
2019-01-06T13:30,0.418,0.780,3.559,11.955,38.70,27.200
2019-01-06T14:00,0.445,0.750,3.410,2.955,31.70,27.150
2019-01-06T14:30,0.500,0.820,3.649,12.063,28.70,27.100
2019-01-06T15:00,0.482,0.790,3.523,11.899,31.70,27.050
2019-01-06T15:30,0.502,0.860,3.569,11.495,39.70,27.000
2019-01-06T16:00,0.458,0.870,3.547,12.095,44.70,26.950
2019-01-06T16:30,0.512,0.950,3.615,11.288,46.70,26.900
2019-01-06T17:00,0.464,0.910,3.548,11.655,41.70,26.850
2019-01-06T17:30,0.444,0.790,3.628,11.523,44.70,26.750
2019-01-06T18:00,0.430,0.720,3.665,11.837,51.70,26.700
2019-01-06T18:30,0.462,0.850,3.533,11.563,39.70,26.650
2019-01-06T19:00,0.453,0.750,3.406,11.409,34.70,26.550
2019-01-06T19:30,0.414,0.640,3.416,11.424,45.70,26.550
2019-01-06T20:00,0.397,0.620,3.429,11.465,42.70,26.500
2019-01-06T20:30,0.393,0.660,3.743,11.459,45.70,26.500
2019-01-06T21:00,0.393,0.610,3.864,11.666,39.70,26.500
2019-01-06T21:30,0.335,0.580,3.708,11.443,44.70,26.500
2019-01-06T22:00,0.310,0.500,3.692,10.903,48.70,26.500
2019-01-06T22:30,0.308,0.520,4.009,11.380,38.70,26.550
2019-01-06T23:00,0.313,0.530,4.146,10.499,42.70,26.550
2019-01-06T23:30,0.284,0.510,4.247,10.812,45.70,26.650
2019-01-07T00:00,0.274,0.520,4.377,10.940,49.70,26.700
2019-01-07T00:30,0.270,0.470,4.754,11.841,34.70,26.750
2019-01-07T01:00,0.278,0.530,4.743,11.498,39.70,26.800
2019-01-07T01:30,0.274,0.440,4.687,11.443,46.70,26.850
2019-01-07T02:00,0.295,0.560,5.213,11.354,46.70,26.900
2019-01-07T02:30,0.282,0.460,5.403,11.094,45.70,26.950
2019-01-07T03:00,0.292,0.490,4.760,10.247,49.70,26.950
2019-01-07T03:30,0.294,0.520,4.345,12.062,34.70,26.950
2019-01-07T04:00,0.287,0.520,4.723,12.199,38.70,26.950
2019-01-07T04:30,0.297,0.470,5.153,11.349,45.70,26.850
2019-01-07T05:00,0.288,0.500,4.603,10.828,45.70,26.800
2019-01-07T05:30,0.311,0.570,4.984,11.562,45.70,26.600
2019-01-07T06:00,0.297,0.570,5.120,12.214,46.70,26.600
2019-01-07T06:30,0.291,0.430,5.074,11.588,51.70,26.550
2019-01-07T07:00,0.285,0.490,5.411,11.345,52.70,26.550
2019-01-07T07:30,0.268,0.560,5.397,11.363,48.70,26.500
2019-01-07T08:00,0.268,0.410,5.742,12.092,52.70,26.450
2019-01-07T08:30,0.248,0.440,5.453,12.021,46.70,26.450
2019-01-07T09:00,0.285,0.520,5.604,10.282,34.70,26.500
2019-01-07T09:30,0.254,0.430,5.228,11.408,44.70,26.600
2019-01-07T10:00,0.260,0.440,5.979,9.716,44.70,26.700
2019-01-07T10:30,0.260,0.420,6.041,10.817,42.70,26.850
2019-01-07T11:00,0.251,0.430,5.733,10.315,41.70,27.000
2019-01-07T11:30,0.229,0.320,6.023,10.810,36.70,27.250
2019-01-07T12:00,0.253,0.420,5.722,11.140,36.70,27.400
2019-01-07T12:30,0.252,0.490,4.446,12.017,41.70,27.500
2019-01-07T13:00,0.235,0.450,4.546,11.468,38.70,27.650
2019-01-07T13:30,0.249,0.560,4.344,11.768,38.70,27.700
2019-01-07T14:00,0.250,0.480,3.961,10.270,48.70,27.650
2019-01-07T14:30,0.269,0.530,3.619,10.852,41.70,27.750
2019-01-07T15:00,0.295,0.530,3.284,11.101,48.70,27.650
2019-01-07T15:30,0.312,0.550,3.368,10.915,35.70,27.650
2019-01-07T16:00,0.317,0.520,3.418,11.416,44.70,27.600
2019-01-07T16:30,0.302,0.590,3.481,10.837,41.70,27.500
2019-01-07T17:00,0.307,0.530,3.369,10.336,41.70,27.400
2019-01-07T17:30,0.294,0.460,3.234,11.290,39.70,27.300
2019-01-07T18:00,0.315,0.510,3.343,10.307,39.70,27.250
2019-01-07T18:30,0.336,0.560,3.302,11.264,42.70,27.150
2019-01-07T19:00,0.338,0.560,3.153,10.405,38.70,27.100
2019-01-07T19:30,0.337,0.560,3.170,3.006,34.70,27.050
2019-01-07T20:00,0.325,0.710,3.243,9.759,48.70,27.000
2019-01-07T20:30,0.313,0.530,3.328,10.231,112.70,26.900
2019-01-07T21:00,0.298,0.460,3.537,10.735,39.70,26.850
2019-01-07T21:30,0.277,0.470,3.379,10.749,49.70,26.800
2019-01-07T22:00,0.248,0.440,3.519,10.178,51.70,26.800
2019-01-07T22:30,0.241,0.410,3.898,10.212,49.70,26.750
2019-01-07T23:00,0.228,0.450,3.761,10.262,45.70,26.750
2019-01-07T23:30,0.230,0.450,4.067,10.351,44.70,26.750
2019-01-08T00:00,0.216,0.330,3.943,10.290,34.70,26.750
2019-01-08T00:30,0.196,0.360,3.907,9.729,38.70,26.800
2019-01-08T01:00,0.210,0.370,4.212,10.248,46.70,26.800
2019-01-08T01:30,0.204,0.380,3.999,10.407,46.70,26.750
2019-01-08T02:00,0.203,0.400,4.114,10.195,48.70,26.800
2019-01-08T02:30,0.209,0.390,4.133,10.542,42.70,26.800
2019-01-08T03:00,0.204,0.350,3.963,10.263,41.70,26.750
2019-01-08T03:30,0.208,0.320,4.487,9.836,46.70,26.800
2019-01-08T04:00,0.215,0.350,4.568,10.151,46.70,26.800
2019-01-08T04:30,0.229,0.410,4.934,10.211,48.70,26.800
2019-01-08T05:00,0.244,0.520,5.152,10.157,49.70,26.850
2019-01-08T05:30,0.242,0.360,5.288,8.863,42.70,27.150
2019-01-08T06:00,0.239,0.400,5.160,9.928,46.70,27.000
2019-01-08T06:30,0.242,0.420,5.355,8.956,32.70,27.000
2019-01-08T07:00,0.227,0.380,5.370,10.330,46.70,27.000
2019-01-08T07:30,0.237,0.400,5.869,10.257,42.70,27.050
2019-01-08T08:00,0.222,0.380,5.793,10.305,46.70,27.150
2019-01-08T08:30,0.224,0.340,5.390,9.579,39.70,27.250
2019-01-08T09:00,0.232,0.350,5.883,10.086,48.70,27.250
2019-01-08T09:30,0.253,0.530,5.792,9.556,49.70,27.400
2019-01-08T10:00,0.259,0.490,6.313,9.397,45.70,27.550
2019-01-08T10:30,0.246,0.400,5.834,10.561,51.70,27.600
2019-01-08T11:00,0.234,0.390,5.520,10.394,48.70,27.750
2019-01-08T11:30,0.243,0.490,5.372,11.382,45.70,27.850
2019-01-08T12:00,0.246,0.540,4.064,11.344,34.70,27.850
2019-01-08T12:30,0.238,0.490,3.514,9.748,38.70,27.950
2019-01-08T13:00,0.264,0.430,3.395,10.707,36.70,28.000
2019-01-08T13:30,0.303,0.550,3.004,10.338,58.70,28.000
2019-01-08T14:00,0.325,0.560,2.918,10.708,52.70,28.000
2019-01-08T14:30,0.349,0.520,2.885,9.813,48.70,28.000
2019-01-08T15:00,0.353,0.590,2.949,2.596,356.70,28.000
2019-01-08T15:30,0.353,0.770,2.943,2.792,353.70,28.050
2019-01-08T16:00,0.382,0.600,2.921,2.656,3.70,28.000
2019-01-08T16:30,0.375,0.620,2.977,2.801,353.70,27.950
2019-01-08T17:00,0.401,0.720,3.067,2.646,4.70,27.900
2019-01-08T17:30,0.417,0.820,3.159,3.210,349.70,27.850
2019-01-08T18:00,0.392,0.700,3.127,3.011,11.70,27.900
2019-01-08T18:30,0.410,0.710,3.063,3.222,8.70,27.900
2019-01-08T19:00,0.395,0.680,3.016,3.421,3.70,27.900
2019-01-08T19:30,0.392,0.670,3.178,3.196,349.70,27.950
2019-01-08T20:00,0.386,0.630,3.361,3.148,41.70,27.800
2019-01-08T20:30,0.357,0.630,3.256,3.478,52.70,27.750
2019-01-08T21:00,0.379,0.660,3.383,3.871,10.70,27.750
2019-01-08T21:30,0.363,0.630,3.431,3.537,0.70,27.600
2019-01-08T22:00,0.350,0.580,3.432,3.476,18.70,27.500
2019-01-08T22:30,0.362,0.640,3.389,3.519,17.70,27.400
2019-01-08T23:00,0.354,0.770,3.495,3.878,3.70,27.350
2019-01-08T23:30,0.348,0.570,3.423,3.657,53.70,27.300
2019-01-09T00:00,0.356,0.590,3.534,4.036,4.70,27.200
2019-01-09T00:30,0.328,0.610,3.544,3.968,8.70,27.050
2019-01-09T01:00,0.322,0.510,3.463,3.912,14.70,27.200
2019-01-09T01:30,0.313,0.630,3.395,10.250,21.70,27.150
2019-01-09T02:00,0.284,0.450,3.611,10.380,44.70,27.100
2019-01-09T02:30,0.278,0.450,3.590,10.315,44.70,27.050
2019-01-09T03:00,0.280,0.540,3.536,3.099,35.70,27.000
2019-01-09T03:30,0.248,0.470,3.535,10.872,11.70,27.000
2019-01-09T04:00,0.234,0.380,3.556,10.270,42.70,26.900
2019-01-09T04:30,0.211,0.360,3.465,10.730,38.70,26.850
2019-01-09T05:00,0.201,0.340,3.388,9.005,35.70,26.800
2019-01-09T05:30,0.208,0.330,3.149,9.645,45.70,26.750
2019-01-09T06:00,0.217,0.400,2.773,9.907,49.70,26.700
2019-01-09T06:30,0.217,0.420,2.752,9.981,53.70,26.650
2019-01-09T07:00,0.238,0.450,2.703,1.992,42.70,26.550
2019-01-09T07:30,0.228,0.460,2.726,1.988,198.70,26.550
2019-01-09T08:00,0.210,0.370,2.710,1.907,193.70,26.600
2019-01-09T08:30,0.206,0.400,2.660,9.816,201.70,26.700
2019-01-09T09:00,0.195,0.370,2.939,9.748,55.70,26.750
2019-01-09T09:30,0.171,0.290,3.908,9.929,45.70,26.850
2019-01-09T10:00,0.211,0.370,2.871,9.318,56.70,26.900
2019-01-09T10:30,0.209,0.400,2.866,9.671,228.70,27.000
2019-01-09T11:00,0.189,0.310,3.246,9.949,44.70,27.250
2019-01-09T11:30,0.174,0.330,4.274,9.983,39.70,27.300
2019-01-09T12:00,0.188,0.340,3.580,9.653,45.70,27.350
2019-01-09T12:30,0.191,0.350,3.161,10.290,41.70,27.650
2019-01-09T13:00,0.197,0.320,2.848,10.002,69.70,28.200
2019-01-09T13:30,0.236,0.380,2.782,10.769,38.70,28.150
2019-01-09T14:00,0.268,0.440,2.702,2.157,41.70,28.050
2019-01-09T14:30,0.292,0.540,2.718,2.342,51.70,28.000
2019-01-09T15:00,0.283,0.490,2.767,2.574,49.70,27.750
2019-01-09T15:30,0.268,0.440,3.032,2.293,60.70,27.700
2019-01-09T16:00,0.257,0.480,2.886,2.463,58.70,27.600
2019-01-09T16:30,0.288,0.510,2.892,2.749,356.70,27.650
2019-01-09T17:00,0.294,0.450,2.937,2.776,347.70,27.600
2019-01-09T17:30,0.279,0.480,3.022,3.050,356.70,27.600
2019-01-09T18:00,0.287,0.490,3.093,2.958,354.70,27.500
2019-01-09T18:30,0.296,0.560,3.052,3.060,356.70,27.350
2019-01-09T19:00,0.281,0.560,3.243,2.968,359.70,27.300
2019-01-09T19:30,0.268,0.550,3.091,3.241,353.70,27.300
2019-01-09T20:00,0.279,0.430,3.228,3.239,349.70,27.350
2019-01-09T20:30,0.272,0.440,3.253,3.135,353.70,27.300
2019-01-09T21:00,0.253,0.470,3.283,3.097,343.70,27.250
2019-01-09T21:30,0.243,0.440,3.206,3.044,55.70,27.250
2019-01-09T22:00,0.227,0.370,3.190,2.798,346.70,27.200